| time (UTC) | temp F | wind direction | speed MPH | gust MPH | rain 1hr in | rain 24hr in | rain mn in | humidity % | barometer mb |
| 20260904004553 | 63 | 0 | 0.0 | 3.0 | 0.00 | 0.15 | 0.15 | 91 | 1013.6 |
| 20260904003100 | 63 | 40 | 2.0 | 4.0 | 0.00 | 0.15 | 0.15 | 91 | 1013.4 |
| 20260904001559 | 63 | 9 | 1.0 | 5.0 | 0.00 | 0.15 | 0.15 | 91 | 1013.7 |
| 20260904000112 | 63 | 0 | 1.0 | 3.0 | 0.00 | 0.15 | 0.15 | 90 | 1013.5 |
| 20260903234553 | 64 | 25 | 0.0 | 0.0 | 0.00 | 0.15 | 0.15 | 90 | 1013.4 |
| 20260903233103 | 64 | 0 | 0.0 | 0.0 | 0.00 | 0.15 | 0.15 | 90 | 1013.3 |
| 20260903231556 | 64 | 0 | 0.0 | 0.0 | 0.00 | 0.15 | 0.15 | 89 | 1013.4 |
| 20260903230057 | 64 | 0 | 0.0 | 1.0 | 0.00 | 0.15 | 0.15 | 88 | 1013.4 |
| 20260903224610 | 65 | 0 | 0.0 | 1.0 | 0.00 | 0.15 | 0.15 | 88 | 1013.7 |
| 20260903223058 | 65 | 0 | 0.0 | 1.0 | 0.00 | 0.15 | 0.15 | 88 | 1013.8 |
| 20260903221555 | 65 | 0 | 0.0 | 1.0 | 0.00 | 0.15 | 0.15 | 87 | 1013.7 |
| 20260903220053 | 65 | 0 | 0.0 | 1.0 | 0.00 | 0.15 | 0.15 | 87 | 1013.7 |
| 20260903214608 | 66 | 0 | 0.0 | 0.0 | 0.00 | 0.15 | 0.15 | 87 | 1013.5 |
| 20260903213110 | 66 | 0 | 0.0 | 1.0 | 0.00 | 0.15 | 0.15 | 87 | 1013.6 |
| 20260903211603 | 66 | 0 | 0.0 | 2.0 | 0.00 | 0.15 | 0.15 | 87 | 1013.7 |
| 20260903210123 | 66 | 0 | 0.0 | 2.0 | 0.00 | 0.15 | 0.15 | 87 | 1013.6 |
| 20260903204558 | 66 | 0 | 0.0 | 2.0 | 0.00 | 0.15 | 0.15 | 87 | 1013.8 |
| 20260903203113 | 66 | 0 | 0.0 | 4.0 | 0.00 | 0.15 | 0.15 | 87 | 1013.8 |
| 20260903201555 | 66 | 195 | 0.0 | 3.0 | 0.00 | 0.15 | 0.15 | 89 | 1013.8 |
| 20260903194558 | 65 | 0 | 0.0 | 1.0 | 0.00 | 0.15 | 0.15 | 90 | 1014.1 |
| 20260903193056 | 64 | 0 | 0.0 | 2.0 | 0.00 | 0.15 | 0.15 | 91 | 1014.1 |
| 20260903191600 | 64 | 205 | 0.0 | 3.0 | 0.00 | 0.15 | 0.15 | 91 | 1014.3 |
| 20260903190057 | 64 | 139 | 0.0 | 3.0 | 0.00 | 0.15 | 0.15 | 92 | 1014.4 |
| 20260903184556 | 63 | 221 | 0.0 | 2.0 | 0.00 | 0.15 | 0.15 | 93 | 1014.8 |
| 20260903183055 | 62 | 131 | 1.0 | 4.0 | 0.00 | 0.15 | 0.15 | 93 | 1015.1 |
| 20260903181552 | 63 | 92 | 0.0 | 2.0 | 0.00 | 0.15 | 0.15 | 94 | 1015.2 |
| 20260903180059 | 62 | 0 | 0.0 | 2.0 | 0.00 | 0.15 | 0.15 | 94 | 1015.1 |
| 20260903174558 | 62 | 179 | 1.0 | 6.0 | 0.00 | 0.15 | 0.15 | 94 | 1015.1 |
| 20260903173054 | 62 | 47 | 0.0 | 4.0 | 0.00 | 0.15 | 0.15 | 94 | 1015.0 |
| 20260903171610 | 62 | 152 | 1.0 | 7.0 | 0.00 | 0.15 | 0.15 | 94 | 1015.1 |
| 20260903170056 | 62 | 152 | 0.0 | 5.0 | 0.00 | 0.15 | 0.15 | 94 | 1015.4 |
| 20260903164620 | 61 | 178 | 1.0 | 4.0 | 0.00 | 0.15 | 0.15 | 94 | 1015.2 |
| 20260903163105 | 61 | 224 | 0.0 | 4.0 | 0.00 | 0.15 | 0.15 | 94 | 1015.6 |
| 20260903161559 | 62 | 143 | 0.0 | 6.0 | 0.00 | 0.15 | 0.15 | 94 | 1015.8 |
| 20260903160117 | 62 | 265 | 0.0 | 5.0 | 0.00 | 0.15 | 0.15 | 94 | 1015.9 |
| 20260903154608 | 61 | 161 | 1.0 | 6.0 | 0.00 | 0.15 | 0.15 | 94 | 1016.2 |
| 20260903153108 | 61 | 169 | 0.0 | 4.0 | 0.00 | 0.15 | 0.15 | 94 | 1016.6 |
| 20260903151601 | 61 | 84 | 0.0 | 4.0 | 0.00 | 0.15 | 0.15 | 94 | 1016.6 |
| 20260903150112 | 60 | 0 | 1.0 | 7.0 | 0.00 | 0.15 | 0.15 | 94 | 1016.7 |
| 20260903144604 | 60 | 0 | 1.0 | 4.0 | 0.00 | 0.15 | 0.15 | 94 | 1016.8 |
| 20260903143108 | 60 | 183 | 0.0 | 7.0 | 0.00 | 0.15 | 0.15 | 94 | 1016.9 |
| 20260903141613 | 60 | 89 | 1.0 | 6.0 | 0.00 | 0.15 | 0.15 | 94 | 1016.9 |
| 20260903140107 | 60 | 142 | 2.0 | 7.0 | 0.00 | 0.15 | 0.15 | 94 | 1017.1 |
| 20260903134602 | 60 | 0 | 0.0 | 4.0 | 0.00 | 0.15 | 0.15 | 94 | 1017.1 |
| 20260903133105 | 59 | 145 | 0.0 | 6.0 | 0.00 | 0.15 | 0.15 | 94 | 1017.1 |
| 20260903131604 | 59 | 198 | 0.0 | 5.0 | 0.00 | 0.15 | 0.15 | 94 | 1017.3 |
| 20260903124555 | 59 | 87 | 0.0 | 4.0 | 0.02 | 0.15 | 0.15 | 94 | 1017.7 |
| 20260903123057 | 59 | 0 | 1.0 | 6.0 | 0.03 | 0.15 | 0.15 | 94 | 1017.6 |
| 20260903121601 | 59 | 162 | 1.0 | 6.0 | 0.04 | 0.15 | 0.15 | 94 | 1017.8 |
| 20260903120104 | 59 | 0 | 0.0 | 1.0 | 0.03 | 0.14 | 0.14 | 94 | 1018.0 |
| 20260903114603 | 59 | 0 | 0.0 | 2.0 | 0.02 | 0.13 | 0.13 | 94 | 1018.0 |
| 20260903113053 | 59 | 302 | 0.0 | 2.0 | 0.01 | 0.12 | 0.12 | 94 | 1018.1 |
| 20260903111600 | 59 | 0 | 0.0 | 2.0 | 0.00 | 0.11 | 0.11 | 94 | 1017.7 |
| 20260903110100 | 59 | 0 | 0.0 | 2.0 | 0.00 | 0.11 | 0.11 | 94 | 1017.6 |
| 20260903104559 | 59 | 175 | 1.0 | 8.0 | 0.00 | 0.11 | 0.11 | 94 | 1017.9 |
| 20260903103059 | 59 | 158 | 2.0 | 10.0 | 0.00 | 0.11 | 0.11 | 94 | 1018.0 |
| 20260903101609 | 60 | 210 | 1.0 | 5.0 | 0.01 | 0.11 | 0.11 | 94 | 1017.9 |
| 20260903100059 | 60 | 155 | 0.0 | 2.0 | 0.08 | 0.11 | 0.11 | 94 | 1017.8 |
| 20260903094605 | 60 | 132 | 0.0 | 5.0 | 0.09 | 0.11 | 0.11 | 94 | 1017.8 |
| 20260903093107 | 60 | 0 | 0.0 | 1.0 | 0.09 | 0.11 | 0.11 | 94 | 1018.2 |
| 20260903091600 | 60 | 0 | 0.0 | 2.0 | 0.08 | 0.10 | 0.10 | 94 | 1018.5 |
| 20260903090100 | 60 | 0 | 0.0 | 2.0 | 0.01 | 0.03 | 0.03 | 94 | 1018.4 |
| 20260903084558 | 60 | 201 | 0.0 | 2.0 | 0.00 | 0.02 | 0.02 | 94 | 1018.6 |
| 20260903083056 | 60 | 0 | 0.0 | 2.0 | 0.00 | 0.02 | 0.02 | 94 | 1018.5 |
| 20260903081601 | 60 | 130 | 0.0 | 4.0 | 0.00 | 0.02 | 0.02 | 94 | 1018.2 |
| 20260903080101 | 60 | 189 | 0.0 | 3.0 | 0.01 | 0.02 | 0.02 | 94 | 1018.1 |
| 20260903074557 | 60 | 0 | 0.0 | 3.0 | 0.02 | 0.02 | 0.02 | 94 | 1018.4 |
| 20260903073057 | 60 | 74 | 0.0 | 4.0 | 0.02 | 0.02 | 0.02 | 94 | 1018.5 |
| 20260903071609 | 60 | 0 | 1.0 | 4.0 | 0.02 | 0.02 | 0.02 | 94 | 1018.7 |
| 20260903064556 | 60 | 0 | 0.0 | 3.0 | 0.00 | 0.00 | 0.00 | 93 | 1019.6 |
| 20260903063119 | 60 | 0 | 0.0 | 5.0 | 0.00 | 0.00 | 0.00 | 93 | 1019.7 |
| 20260903061559 | 59 | 0 | 0.0 | 5.0 | 0.00 | 0.00 | 0.00 | 93 | 1019.9 |
| 20260903060115 | 59 | 0 | 0.0 | 4.0 | 0.00 | 0.00 | 0.00 | 93 | 1020.0 |
| 20260903054555 | 59 | 111 | 0.0 | 3.0 | 0.00 | 0.00 | 0.00 | 93 | 1020.1 |
| 20260903053103 | 59 | 0 | 0.0 | 2.0 | 0.00 | 0.00 | 0.00 | 92 | 1020.3 |
| 20260903051559 | 59 | 0 | 0.0 | 5.0 | 0.00 | 0.00 | 0.00 | 92 | 1020.2 |
| 20260903050127 | 59 | 0 | 0.0 | 3.0 | 0.00 | 0.00 | 0.00 | 92 | 1020.3 |
| 20260903044555 | 59 | 0 | 0.0 | 4.0 | 0.00 | 0.00 | 0.00 | 92 | 1020.5 |
| 20260903043059 | 59 | 98 | 0.0 | 3.0 | 0.00 | 0.00 | 0.00 | 92 | 1020.5 |
| 20260903041600 | 59 | 0 | 0.0 | 2.0 | 0.00 | 0.00 | 0.00 | 92 | 1021.1 |
| 20260903040100 | 59 | 144 | 0.0 | 2.0 | 0.00 | 0.00 | 0.00 | 91 | 1021.3 |
| 20260903034553 | 59 | 0 | 0.0 | 1.0 | 0.00 | 0.00 | 0.00 | 91 | 1021.4 |
| 20260903033100 | 58 | 0 | 0.0 | 2.0 | 0.00 | 0.00 | 0.00 | 91 | 1021.4 |
| 20260903031557 | 58 | 0 | 0.0 | 3.0 | 0.00 | 0.00 | 0.00 | 91 | 1021.5 |
| 20260903030056 | 58 | 134 | 0.0 | 4.0 | 0.00 | 0.00 | 0.00 | 90 | 1021.4 |
| 20260903024600 | 58 | 128 | 1.0 | 4.0 | 0.00 | 0.00 | 0.00 | 90 | 1021.4 |
| 20260903023057 | 58 | 128 | 1.0 | 6.0 | 0.00 | 0.00 | 0.00 | 90 | 1021.7 |
| 20260903021556 | 58 | 198 | 1.0 | 5.0 | 0.00 | 0.00 | 0.00 | 90 | 1021.9 |
| 20260903020057 | 58 | 163 | 1.0 | 6.0 | 0.00 | 0.00 | 0.00 | 90 | 1021.9 |
| 20260903014603 | 58 | 248 | 0.0 | 5.0 | 0.00 | 0.00 | 0.00 | 89 | 1021.9 |
| 20260903013058 | 59 | 86 | 1.0 | 7.0 | 0.00 | 0.00 | 0.00 | 89 | 1021.9 |
| 20260903011608 | 59 | 124 | 1.0 | 6.0 | 0.00 | 0.00 | 0.00 | 89 | 1021.6 |
| 20260903010055 | 59 | 0 | 1.0 | 10.0 | 0.00 | 0.00 | 0.00 | 89 | 1022.0 |